Simultaneous Nadir Overpasses (SNOs) Predictions

Prediction of SNOs between AQUA and NOAA-19 Satellite Orbit:

Table of predicted SNOs for the next 14.0 days since TLE Epoch: 3/25/2023
Index Date (AQUA) Time (AQUA) Lat,Lon (AQUA) SZA (AQUA ) Date (NOAA-19) Time (NOAA-19) Lat,Lon (NOAA-19) SZA (NOAA-19 ) Distance(km) Time Diff (sec)
1 03/25/2023 10:52:33 -76.65,-174.18 104.90 03/25/2023 10:51:45 -76.66,-174.31 104.88 3.40 48
2 03/25/2023 11:42:00 76.72, -6.75 75.16 03/25/2023 11:42:44 76.73, -6.76 75.17 1.61 44
3 03/27/2023 16:24:37 76.67, -77.23 74.24 03/27/2023 16:24:22 76.67, -77.36 74.25 3.40 15
4 03/27/2023 17:14:05 -76.84, 89.81 105.58 03/27/2023 17:15:16 -76.89, 90.83 105.60 26.25 71
5 03/29/2023 21:07:13 76.65,-147.79 73.35 03/29/2023 21:06:00 76.59,-148.00 73.32 8.52 73
6 03/29/2023 21:56:39 -76.72, 19.60 106.58 03/29/2023 21:56:57 -76.71, 19.75 106.60 3.96 18
7 04/01/2023 02:39:13 -76.68, -50.87 107.49 04/01/2023 02:38:35 -76.65, -50.83 107.51 3.31 38
8 04/01/2023 03:28:39 76.71, 116.66 72.54 04/01/2023 03:29:32 76.73, 116.75 72.54 2.99 53
9 04/03/2023 08:11:11 76.66, 46.24 71.62 04/03/2023 08:11:09 76.68, 46.19 71.64 2.53 2
10 04/05/2023 12:53:42 76.63, -24.27 70.74 04/05/2023 12:52:45 76.65, -24.24 70.77 2.81 57
11 04/05/2023 13:43:08 -76.69, 143.16 109.21 04/05/2023 13:43:46 -76.68, 143.12 109.22 1.45 38
12 04/07/2023 18:25:37 -76.64, 72.73 110.10 04/07/2023 18:25:22 -76.67, 72.76 110.07 3.55 15



Historial Predications of SNOs between AQUA and NOAA-19
